contact:dominique.lefevre@mio.osupytheas.fr, maurice.libes@osupytheas.fr, didier.mallarino@osupytheas.fr
Project:EMSO http://www.emso-fr.org/EMSO-France
Depth: 2436.0 m
Title:EMSO Ligure Ouest : Data MII capteur MICROCAT
DateTime_Computer,Latitude,Longitude,Temperature,Conductivity,Pressure,DateTime_Instrument
DateTime_Computer,Latitude,Longitude,degC,S m-1,dbar,DateTime_Instrument
2021-12-06T00:01:25Z,42.805,6.029,13.3000,4.60036,2470.18,2021-12-06T02:02:53Z
2021-12-06T00:04:29Z,42.805,6.029,13.2998,4.60039,2470.18,2021-12-06T02:05:56Z
2021-12-06T00:07:32Z,42.805,6.029,13.2998,4.60023,2470.18,2021-12-06T02:08:59Z
2021-12-06T00:10:35Z,42.805,6.029,13.2995,4.60028,2470.18,2021-12-06T02:12:02Z
2021-12-06T00:13:38Z,42.805,6.029,13.2999,4.60035,2470.18,2021-12-06T02:15:06Z
2021-12-06T00:16:41Z,42.805,6.029,13.3000,4.60033,2470.156,2021-12-06T02:18:09Z
2021-12-06T00:19:44Z,42.805,6.029,13.3009,4.60047,2470.156,2021-12-06T02:21:12Z
2021-12-06T00:22:47Z,42.805,6.029,13.3003,4.60035,2470.194,2021-12-06T02:24:15Z
2021-12-06T00:25:50Z,42.805,6.029,13.2998,4.60028,2470.18,2021-12-06T02:27:18Z
2021-12-06T00:28:53Z,42.805,6.029,13.3005,4.60032,2470.156,2021-12-06T02:30:21Z
2021-12-06T00:31:57Z,42.805,6.029,13.3006,4.60039,2470.18,2021-12-06T02:33:24Z
2021-12-06T00:35:00Z,42.805,6.029,13.3003,4.60033,2470.171,2021-12-06T02:36:27Z
2021-12-06T00:38:03Z,42.805,6.029,13.3000,4.60034,2470.156,2021-12-06T02:39:31Z
2021-12-06T00:41:06Z,42.805,6.029,13.3004,4.60029,2470.133,2021-12-06T02:42:34Z
2021-12-06T00:44:09Z,42.805,6.029,13.3006,4.60044,2470.147,2021-12-06T02:45:37Z
2021-12-06T00:47:12Z,42.805,6.029,13.2996,4.60031,2470.194,2021-12-06T02:48:40Z
2021-12-06T00:50:15Z,42.805,6.029,13.2995,4.60041,2470.171,2021-12-06T02:51:43Z
2021-12-06T00:53:18Z,42.805,6.029,13.3000,4.60039,2470.133,2021-12-06T02:54:46Z
2021-12-06T00:56:22Z,42.805,6.029,13.3004,4.60038,2470.156,2021-12-06T02:57:49Z
2021-12-06T00:59:25Z,42.805,6.029,13.2998,4.60027,2470.18,2021-12-06T03:00:52Z
2021-12-06T01:02:28Z,42.805,6.029,13.3001,4.60038,2470.147,2021-12-06T03:03:55Z
2021-12-06T01:05:31Z,42.805,6.029,13.2996,4.60042,2470.147,2021-12-06T03:06:59Z
2021-12-06T01:08:34Z,42.805,6.029,13.2998,4.60036,2470.147,2021-12-06T03:10:02Z
2021-12-06T01:11:37Z,42.805,6.029,13.2996,4.60052,2470.147,2021-12-06T03:13:05Z
2021-12-06T01:14:40Z,42.805,6.029,13.3002,4.60044,2470.171,2021-12-06T03:16:08Z
2021-12-06T01:17:43Z,42.805,6.029,13.2993,4.60042,2470.133,2021-12-06T03:19:11Z
2021-12-06T01:20:46Z,42.805,6.029,13.2996,4.60026,2470.147,2021-12-06T03:22:14Z
2021-12-06T01:23:50Z,42.805,6.029,13.2993,4.60038,2470.133,2021-12-06T03:25:17Z
2021-12-06T01:26:53Z,42.805,6.029,13.2998,4.60032,2470.124,2021-12-06T03:28:20Z
2021-12-06T01:29:56Z,42.805,6.029,13.2998,4.60027,2470.133,2021-12-06T03:31:24Z
2021-12-06T01:32:59Z,42.805,6.029,13.2994,4.60031,2470.171,2021-12-06T03:34:27Z
2021-12-06T01:36:02Z,42.805,6.029,13.3001,4.60034,2470.133,2021-12-06T03:37:30Z
2021-12-06T01:39:05Z,42.805,6.029,13.3000,4.60039,2470.124,2021-12-06T03:40:33Z
2021-12-06T01:42:08Z,42.805,6.029,13.2996,4.60029,2470.133,2021-12-06T03:43:36Z
2021-12-06T01:45:11Z,42.805,6.029,13.3001,4.60036,2470.11,2021-12-06T03:46:39Z
2021-12-06T01:48:15Z,42.805,6.029,13.3000,4.60039,2470.147,2021-12-06T03:49:42Z
2021-12-06T01:51:18Z,42.805,6.029,13.3000,4.60044,2470.119,2021-12-06T03:52:45Z
2021-12-06T01:54:21Z,42.805,6.029,13.2998,4.60052,2470.124,2021-12-06T03:55:48Z
2021-12-06T01:57:24Z,42.805,6.029,13.2997,4.60027,2470.133,2021-12-06T03:58:52Z
2021-12-06T02:00:27Z,42.805,6.029,13.3001,4.60039,2470.11,2021-12-06T04:01:55Z
2021-12-06T02:03:30Z,42.805,6.029,13.3002,4.60044,2470.147,2021-12-06T04:04:58Z
2021-12-06T02:06:33Z,42.805,6.029,13.2998,4.60038,2470.11,2021-12-06T04:08:01Z
2021-12-06T02:09:36Z,42.805,6.029,13.2998,4.60029,2470.11,2021-12-06T04:11:04Z
2021-12-06T02:12:39Z,42.805,6.029,13.3003,4.60057,2470.133,2021-12-06T04:14:07Z
2021-12-06T02:15:43Z,42.805,6.029,13.3000,4.60037,2470.124,2021-12-06T04:17:10Z
2021-12-06T02:18:46Z,42.805,6.029,13.2998,4.60032,2470.147,2021-12-06T04:20:13Z
2021-12-06T02:21:49Z,42.805,6.029,13.3005,4.60036,2470.133,2021-12-06T04:23:17Z
2021-12-06T02:24:52Z,42.805,6.029,13.2996,4.60037,2470.133,2021-12-06T04:26:20Z
2021-12-06T02:27:55Z,42.805,6.029,13.3004,4.60035,2470.096,2021-12-06T04:29:23Z
2021-12-06T02:30:58Z,42.805,6.029,13.3006,4.60039,2470.124,2021-12-06T04:32:26Z
2021-12-06T02:34:01Z,42.805,6.029,13.3000,4.60037,2470.133,2021-12-06T04:35:29Z
2021-12-06T02:37:04Z,42.805,6.029,13.2999,4.60031,2470.133,2021-12-06T04:38:32Z
2021-12-06T02:40:08Z,42.805,6.029,13.2997,4.60029,2470.133,2021-12-06T04:41:35Z
2021-12-06T02:43:11Z,42.805,6.029,13.2997,4.60032,2470.087,2021-12-06T04:44:38Z
2021-12-06T02:46:14Z,42.805,6.029,13.3000,4.60044,2470.11,2021-12-06T04:47:42Z
2021-12-06T02:49:17Z,42.805,6.029,13.2998,4.60047,2470.119,2021-12-06T04:50:45Z
2021-12-06T02:52:20Z,42.805,6.029,13.2999,4.60039,2470.11,2021-12-06T04:53:48Z
2021-12-06T02:55:23Z,42.805,6.029,13.2998,4.60045,2470.133,2021-12-06T04:56:51Z
2021-12-06T02:58:26Z,42.805,6.029,13.3000,4.60034,2470.156,2021-12-06T04:59:54Z
2021-12-06T03:01:29Z,42.805,6.029,13.2997,4.60040,2470.087,2021-12-06T05:02:57Z
2021-12-06T03:04:33Z,42.805,6.029,13.3009,4.60038,2470.156,2021-12-06T05:06:00Z
2021-12-06T03:07:36Z,42.805,6.029,13.3006,4.60047,2470.11,2021-12-06T05:09:03Z
2021-12-06T03:10:39Z,42.805,6.029,13.3003,4.60046,2470.11,2021-12-06T05:12:06Z
2021-12-06T03:13:42Z,42.805,6.029,13.3004,4.60044,2470.133,2021-12-06T05:15:10Z
2021-12-06T03:16:45Z,42.805,6.029,13.3009,4.60041,2470.171,2021-12-06T05:18:13Z
2021-12-06T03:19:48Z,42.805,6.029,13.2996,4.60025,2470.133,2021-12-06T05:21:16Z
2021-12-06T03:22:51Z,42.805,6.029,13.2998,4.60045,2470.11,2021-12-06T05:24:19Z
2021-12-06T03:25:54Z,42.805,6.029,13.3003,4.60027,2470.147,2021-12-06T05:27:22Z
2021-12-06T03:28:57Z,42.805,6.029,13.2999,4.60033,2470.133,2021-12-06T05:30:25Z
2021-12-06T03:32:01Z,42.805,6.029,13.3000,4.60031,2470.156,2021-12-06T05:33:28Z
2021-12-06T03:35:04Z,42.805,6.029,13.3002,4.60026,2470.147,2021-12-06T05:36:31Z
2021-12-06T03:38:07Z,42.805,6.029,13.3000,4.60037,2470.18,2021-12-06T05:39:34Z
2021-12-06T03:41:10Z,42.805,6.029,13.3001,4.60041,2470.156,2021-12-06T05:42:38Z
2021-12-06T03:44:13Z,42.805,6.029,13.3006,4.60039,2470.133,2021-12-06T05:45:41Z
2021-12-06T03:47:16Z,42.805,6.029,13.3000,4.60032,2470.171,2021-12-06T05:48:44Z
2021-12-06T03:50:19Z,42.805,6.029,13.2998,4.60039,2470.156,2021-12-06T05:51:47Z
2021-12-06T03:53:22Z,42.805,6.029,13.3003,4.60034,2470.156,2021-12-06T05:54:50Z
2021-12-06T03:56:26Z,42.805,6.029,13.2997,4.60038,2470.194,2021-12-06T05:57:53Z
2021-12-06T03:59:29Z,42.805,6.029,13.2999,4.60035,2470.156,2021-12-06T06:00:56Z
2021-12-06T04:02:32Z,42.805,6.029,13.3000,4.60031,2470.156,2021-12-06T06:03:59Z
2021-12-06T04:05:35Z,42.805,6.029,13.3001,4.60040,2470.156,2021-12-06T06:07:03Z
2021-12-06T04:08:38Z,42.805,6.029,13.2995,4.60035,2470.156,2021-12-06T06:10:06Z
2021-12-06T04:11:41Z,42.805,6.029,13.3000,4.60036,2470.147,2021-12-06T06:13:09Z
2021-12-06T04:14:44Z,42.805,6.029,13.3000,4.60041,2470.18,2021-12-06T06:16:12Z
2021-12-06T04:17:47Z,42.805,6.029,13.3002,4.60034,2470.194,2021-12-06T06:19:15Z
2021-12-06T04:20:50Z,42.805,6.029,13.3001,4.60033,2470.143,2021-12-06T06:22:18Z
2021-12-06T04:23:54Z,42.805,6.029,13.2996,4.60025,2470.156,2021-12-06T06:25:21Z
2021-12-06T04:26:57Z,42.805,6.029,13.2998,4.60029,2470.194,2021-12-06T06:28:24Z
2021-12-06T04:30:00Z,42.805,6.029,13.2999,4.60029,2470.217,2021-12-06T06:31:27Z
2021-12-06T04:33:03Z,42.805,6.029,13.3004,4.60033,2470.156,2021-12-06T06:34:31Z
2021-12-06T04:36:06Z,42.805,6.029,13.3003,4.60039,2470.18,2021-12-06T06:37:34Z
2021-12-06T04:39:09Z,42.805,6.029,13.3000,4.60034,2470.156,2021-12-06T06:40:37Z
2021-12-06T04:42:12Z,42.805,6.029,13.3002,4.60033,2470.227,2021-12-06T06:43:40Z
2021-12-06T04:45:15Z,42.805,6.029,13.2996,4.60047,2470.217,2021-12-06T06:46:43Z
2021-12-06T04:48:19Z,42.805,6.029,13.3001,4.60032,2470.203,2021-12-06T06:49:46Z
2021-12-06T04:51:22Z,42.805,6.029,13.3004,4.60029,2470.18,2021-12-06T06:52:49Z
2021-12-06T04:54:25Z,42.805,6.029,13.2997,4.60026,2470.203,2021-12-06T06:55:52Z
2021-12-06T04:57:28Z,42.805,6.029,13.3000,4.60029,2470.203,2021-12-06T06:58:56Z
2021-12-06T05:00:31Z,42.805,6.029,13.2993,4.60026,2470.194,2021-12-06T07:01:59Z
2021-12-06T05:03:34Z,42.805,6.029,13.2998,4.60026,2470.24,2021-12-06T07:05:02Z
2021-12-06T05:06:37Z,42.805,6.029,13.3000,4.60023,2470.24,2021-12-06T07:08:05Z
2021-12-06T05:09:40Z,42.805,6.029,13.2997,4.60036,2470.25,2021-12-06T07:11:08Z
2021-12-06T05:12:43Z,42.805,6.029,13.3003,4.60032,2470.227,2021-12-06T07:14:11Z
2021-12-06T05:15:47Z,42.805,6.029,13.3003,4.60046,2470.25,2021-12-06T07:17:14Z
2021-12-06T05:18:50Z,42.805,6.029,13.3000,4.60039,2470.227,2021-12-06T07:20:17Z
2021-12-06T05:21:53Z,42.805,6.029,13.3005,4.60031,2470.273,2021-12-06T07:23:21Z
2021-12-06T05:24:56Z,42.805,6.029,13.2997,4.60042,2470.273,2021-12-06T07:26:24Z
2021-12-06T05:27:59Z,42.805,6.029,13.2999,4.60032,2470.227,2021-12-06T07:29:27Z
2021-12-06T05:31:02Z,42.805,6.029,13.2998,4.60026,2470.273,2021-12-06T07:32:30Z
2021-12-06T05:34:05Z,42.805,6.029,13.3001,4.60033,2470.264,2021-12-06T07:35:33Z
2021-12-06T05:37:08Z,42.805,6.029,13.2999,4.60024,2470.273,2021-12-06T07:38:36Z
2021-12-06T05:40:12Z,42.805,6.029,13.3001,4.60024,2470.297,2021-12-06T07:41:39Z
2021-12-06T05:43:15Z,42.805,6.029,13.2996,4.60027,2470.287,2021-12-06T07:44:42Z
2021-12-06T05:46:18Z,42.805,6.029,13.2997,4.60025,2470.273,2021-12-06T07:47:45Z
2021-12-06T05:49:21Z,42.805,6.029,13.2994,4.60035,2470.287,2021-12-06T07:50:49Z
2021-12-06T05:52:24Z,42.805,6.029,13.2996,4.60031,2470.297,2021-12-06T07:53:52Z
2021-12-06T05:55:27Z,42.805,6.029,13.3002,4.60045,2470.31,2021-12-06T07:56:55Z
2021-12-06T05:58:30Z,42.805,6.029,13.3002,4.60034,2470.343,2021-12-06T07:59:58Z
2021-12-06T06:01:33Z,42.805,6.029,13.3003,4.60036,2470.297,2021-12-06T08:03:01Z
2021-12-06T06:04:36Z,42.805,6.029,13.2997,4.60031,2470.32,2021-12-06T08:06:04Z
2021-12-06T06:07:40Z,42.805,6.029,13.3003,4.60041,2470.32,2021-12-06T08:09:07Z
2021-12-06T06:10:43Z,42.805,6.029,13.2995,4.60032,2470.366,2021-12-06T08:12:10Z
2021-12-06T06:13:46Z,42.805,6.029,13.2998,4.60038,2470.32,2021-12-06T08:15:13Z
2021-12-06T06:16:49Z,42.805,6.029,13.2998,4.60034,2470.33,2021-12-06T08:18:17Z
2021-12-06T06:19:52Z,42.805,6.029,13.2996,4.60030,2470.357,2021-12-06T08:21:20Z
2021-12-06T06:22:55Z,42.805,6.029,13.2994,4.60032,2470.343,2021-12-06T08:24:23Z
2021-12-06T06:25:58Z,42.805,6.029,13.2998,4.60038,2470.366,2021-12-06T08:27:26Z
2021-12-06T06:29:01Z,42.805,6.029,13.2994,4.60026,2470.343,2021-12-06T08:30:29Z
2021-12-06T06:32:04Z,42.805,6.029,13.2998,4.60026,2470.343,2021-12-06T08:33:32Z
2021-12-06T06:35:08Z,42.805,6.029,13.2998,4.60027,2470.357,2021-12-06T08:36:35Z
2021-12-06T06:38:11Z,42.805,6.029,13.3008,4.60057,2470.38,2021-12-06T08:39:38Z
2021-12-06T06:41:14Z,42.805,6.029,13.2998,4.60032,2470.38,2021-12-06T08:42:42Z
2021-12-06T06:44:17Z,42.805,6.029,13.3002,4.60033,2470.366,2021-12-06T08:45:45Z
2021-12-06T06:47:20Z,42.805,6.029,13.3000,4.60034,2470.39,2021-12-06T08:48:48Z
2021-12-06T06:50:23Z,42.805,6.029,13.2999,4.60024,2470.366,2021-12-06T08:51:51Z
2021-12-06T06:53:26Z,42.805,6.029,13.2999,4.60033,2470.366,2021-12-06T08:54:54Z
2021-12-06T06:56:29Z,42.805,6.029,13.2996,4.60033,2470.357,2021-12-06T08:57:57Z
2021-12-06T06:59:33Z,42.805,6.029,13.3001,4.60031,2470.427,2021-12-06T09:01:00Z
2021-12-06T07:02:36Z,42.805,6.029,13.3001,4.60026,2470.366,2021-12-06T09:04:03Z
2021-12-06T07:05:39Z,42.805,6.029,13.3000,4.60031,2470.39,2021-12-06T09:07:07Z
2021-12-06T07:08:42Z,42.805,6.029,13.3001,4.60033,2470.404,2021-12-06T09:10:10Z
2021-12-06T07:11:45Z,42.805,6.029,13.2998,4.60031,2470.404,2021-12-06T09:13:13Z
2021-12-06T07:14:48Z,42.805,6.029,13.3004,4.60032,2470.413,2021-12-06T09:16:16Z
2021-12-06T07:17:51Z,42.805,6.029,13.3003,4.60039,2470.427,2021-12-06T09:19:19Z
2021-12-06T07:20:54Z,42.805,6.029,13.2999,4.60033,2470.376,2021-12-06T09:22:22Z
2021-12-06T07:23:58Z,42.805,6.029,13.2997,4.60031,2470.366,2021-12-06T09:25:25Z
2021-12-06T07:27:01Z,42.805,6.029,13.2996,4.60036,2470.413,2021-12-06T09:28:28Z
2021-12-06T07:30:04Z,42.805,6.029,13.2999,4.60048,2470.413,2021-12-06T09:31:31Z
2021-12-06T07:33:07Z,42.805,6.029,13.3005,4.60045,2470.366,2021-12-06T09:34:35Z
2021-12-06T07:36:10Z,42.805,6.029,13.2997,4.60038,2470.46,2021-12-06T09:37:38Z
2021-12-06T07:39:13Z,42.805,6.029,13.2996,4.60041,2470.437,2021-12-06T09:40:41Z
2021-12-06T07:42:16Z,42.805,6.029,13.3004,4.60052,2470.474,2021-12-06T09:43:44Z
2021-12-06T07:45:19Z,42.805,6.029,13.3006,4.60053,2470.413,2021-12-06T09:46:47Z
2021-12-06T07:48:22Z,42.805,6.029,13.2997,4.60039,2470.39,2021-12-06T09:49:50Z
2021-12-06T07:51:26Z,42.805,6.029,13.3004,4.60046,2470.437,2021-12-06T09:52:53Z
2021-12-06T07:54:29Z,42.805,6.029,13.2996,4.60044,2470.437,2021-12-06T09:55:56Z
2021-12-06T07:57:32Z,42.805,6.029,13.3000,4.60039,2470.413,2021-12-06T09:59:00Z
2021-12-06T08:00:35Z,42.805,6.029,13.2997,4.60031,2470.413,2021-12-06T10:02:03Z
2021-12-06T08:03:38Z,42.805,6.029,13.2994,4.60031,2470.427,2021-12-06T10:05:06Z
2021-12-06T08:06:41Z,42.805,6.029,13.3002,4.60042,2470.45,2021-12-06T10:08:09Z
2021-12-06T08:09:44Z,42.805,6.029,13.2998,4.60038,2470.437,2021-12-06T10:11:12Z
2021-12-06T08:12:47Z,42.805,6.029,13.3004,4.60057,2470.46,2021-12-06T10:14:15Z
2021-12-06T08:15:51Z,42.805,6.029,13.3006,4.60063,2470.437,2021-12-06T10:17:18Z
2021-12-06T08:18:54Z,42.805,6.029,13.3000,4.60032,2470.437,2021-12-06T10:20:21Z
2021-12-06T08:21:57Z,42.805,6.029,13.3003,4.60039,2470.46,2021-12-06T10:23:25Z
2021-12-06T08:25:00Z,42.805,6.029,13.3007,4.60055,2470.46,2021-12-06T10:26:28Z
2021-12-06T08:28:03Z,42.805,6.029,13.3004,4.60040,2470.437,2021-12-06T10:29:31Z
2021-12-06T08:31:06Z,42.805,6.029,13.3003,4.60046,2470.474,2021-12-06T10:32:34Z
2021-12-06T08:34:09Z,42.805,6.029,13.3004,4.60041,2470.46,2021-12-06T10:35:37Z
2021-12-06T08:37:12Z,42.805,6.029,13.3004,4.60038,2470.474,2021-12-06T10:38:40Z
2021-12-06T08:40:16Z,42.805,6.029,13.2996,4.60029,2470.45,2021-12-06T10:41:43Z
2021-12-06T08:43:19Z,42.805,6.029,13.2997,4.60032,2470.437,2021-12-06T10:44:46Z
2021-12-06T08:46:22Z,42.805,6.029,13.2996,4.60037,2470.483,2021-12-06T10:47:50Z
2021-12-06T08:49:25Z,42.805,6.029,13.2996,4.60046,2470.437,2021-12-06T10:50:53Z
2021-12-06T08:52:28Z,42.805,6.029,13.3004,4.60044,2470.437,2021-12-06T10:53:56Z
2021-12-06T08:55:31Z,42.805,6.029,13.3003,4.60041,2470.437,2021-12-06T10:56:59Z
2021-12-06T08:58:34Z,42.805,6.029,13.2999,4.60046,2470.45,2021-12-06T11:00:02Z
2021-12-06T09:01:37Z,42.805,6.029,13.2996,4.60045,2470.474,2021-12-06T11:03:05Z
2021-12-06T09:04:41Z,42.805,6.029,13.2996,4.60042,2470.427,2021-12-06T11:06:08Z
2021-12-06T09:07:44Z,42.805,6.029,13.3008,4.60054,2470.437,2021-12-06T11:09:11Z
2021-12-06T09:10:47Z,42.805,6.029,13.3007,4.60066,2470.474,2021-12-06T11:12:15Z
2021-12-06T09:13:50Z,42.805,6.029,13.3006,4.60040,2470.46,2021-12-06T11:15:18Z
2021-12-06T09:16:53Z,42.805,6.029,13.2995,4.60039,2470.437,2021-12-06T11:18:21Z
2021-12-06T09:19:56Z,42.805,6.029,13.3003,4.60045,2470.437,2021-12-06T11:21:24Z
2021-12-06T09:22:59Z,42.805,6.029,13.2996,4.60054,2470.474,2021-12-06T11:24:27Z
2021-12-06T09:26:02Z,42.805,6.029,13.2996,4.60033,2470.483,2021-12-06T11:27:30Z
2021-12-06T09:29:06Z,42.805,6.029,13.3004,4.60046,2470.45,2021-12-06T11:30:33Z
2021-12-06T09:32:09Z,42.805,6.029,13.3001,4.60038,2470.45,2021-12-06T11:33:36Z
2021-12-06T09:35:12Z,42.805,6.029,13.3002,4.60040,2470.497,2021-12-06T11:36:40Z
2021-12-06T09:38:15Z,42.805,6.029,13.3000,4.60044,2470.437,2021-12-06T11:39:43Z
2021-12-06T09:41:18Z,42.805,6.029,13.3004,4.60053,2470.474,2021-12-06T11:42:46Z
2021-12-06T09:44:21Z,42.805,6.029,13.3006,4.60064,2470.437,2021-12-06T11:45:49Z
2021-12-06T09:47:24Z,42.805,6.029,13.3000,4.60037,2470.437,2021-12-06T11:48:52Z
2021-12-06T09:50:27Z,42.805,6.029,13.3004,4.60035,2470.427,2021-12-06T11:51:55Z
2021-12-06T09:53:31Z,42.805,6.029,13.3008,4.60057,2470.474,2021-12-06T11:54:58Z
2021-12-06T09:56:34Z,42.805,6.029,13.2998,4.60032,2470.413,2021-12-06T11:58:01Z
2021-12-06T09:59:37Z,42.805,6.029,13.2998,4.60037,2470.427,2021-12-06T12:01:05Z
2021-12-06T10:02:40Z,42.805,6.029,13.3006,4.60074,2470.437,2021-12-06T12:04:08Z
2021-12-06T10:05:43Z,42.805,6.029,13.3000,4.60052,2470.46,2021-12-06T12:07:11Z
2021-12-06T10:08:46Z,42.805,6.029,13.3019,4.60043,2470.45,2021-12-06T12:10:14Z
2021-12-06T10:11:49Z,42.805,6.029,13.3000,4.60056,2470.413,2021-12-06T12:13:17Z
2021-12-06T10:14:52Z,42.805,6.029,13.3000,4.60055,2470.413,2021-12-06T12:16:20Z
2021-12-06T10:17:56Z,42.805,6.029,13.3009,4.60064,2470.437,2021-12-06T12:19:23Z
2021-12-06T10:20:59Z,42.805,6.029,13.2998,4.60036,2470.437,2021-12-06T12:22:26Z
2021-12-06T10:24:02Z,42.805,6.029,13.3000,4.60044,2470.413,2021-12-06T12:25:29Z
2021-12-06T10:27:05Z,42.805,6.029,13.3000,4.60032,2470.413,2021-12-06T12:28:33Z
2021-12-06T10:30:08Z,42.805,6.029,13.3000,4.60072,2470.474,2021-12-06T12:31:36Z
2021-12-06T10:33:11Z,42.805,6.029,13.2996,4.60041,2470.413,2021-12-06T12:34:39Z
2021-12-06T10:36:14Z,42.805,6.029,13.3002,4.60043,2470.427,2021-12-06T12:37:42Z
2021-12-06T10:39:17Z,42.805,6.029,13.3004,4.60046,2470.45,2021-12-06T12:40:45Z
2021-12-06T10:42:20Z,42.805,6.029,13.3004,4.60054,2470.413,2021-12-06T12:43:48Z
2021-12-06T10:45:24Z,42.805,6.029,13.2998,4.60066,2470.39,2021-12-06T12:46:51Z
2021-12-06T10:48:27Z,42.805,6.029,13.2996,4.60053,2470.46,2021-12-06T12:49:54Z
2021-12-06T10:51:30Z,42.805,6.029,13.3000,4.60033,2470.427,2021-12-06T12:52:58Z
2021-12-06T10:54:33Z,42.805,6.029,13.2999,4.60033,2470.413,2021-12-06T12:56:01Z
2021-12-06T10:57:36Z,42.805,6.029,13.2998,4.60057,2470.413,2021-12-06T12:59:04Z
2021-12-06T11:00:39Z,42.805,6.029,13.3015,4.60079,2470.39,2021-12-06T13:02:07Z
2021-12-06T11:03:42Z,42.805,6.029,13.3000,4.60050,2470.38,2021-12-06T13:05:10Z
2021-12-06T11:06:45Z,42.805,6.029,13.3005,4.60056,2470.366,2021-12-06T13:08:13Z
2021-12-06T11:09:49Z,42.805,6.029,13.3006,4.60052,2470.404,2021-12-06T13:11:16Z
2021-12-06T11:12:52Z,42.805,6.029,13.3003,4.60063,2470.38,2021-12-06T13:14:19Z
2021-12-06T11:15:55Z,42.805,6.029,13.3003,4.60054,2470.404,2021-12-06T13:17:23Z
2021-12-06T11:18:58Z,42.805,6.029,13.3006,4.60044,2470.39,2021-12-06T13:20:26Z
2021-12-06T11:22:01Z,42.805,6.029,13.3000,4.60049,2470.366,2021-12-06T13:23:29Z
2021-12-06T11:25:04Z,42.805,6.029,13.3001,4.60046,2470.39,2021-12-06T13:26:32Z
2021-12-06T11:28:07Z,42.805,6.029,13.2997,4.60042,2470.366,2021-12-06T13:29:35Z
2021-12-06T11:31:10Z,42.805,6.029,13.2999,4.60038,2470.366,2021-12-06T13:32:38Z
2021-12-06T11:34:14Z,42.805,6.029,13.3004,4.60045,2470.38,2021-12-06T13:35:41Z
2021-12-06T11:37:17Z,42.805,6.029,13.2999,4.60049,2470.343,2021-12-06T13:38:44Z
2021-12-06T11:40:20Z,42.805,6.029,13.3011,4.60049,2470.404,2021-12-06T13:41:48Z
2021-12-06T11:43:23Z,42.805,6.029,13.3006,4.60059,2470.366,2021-12-06T13:44:51Z
2021-12-06T11:46:26Z,42.805,6.029,13.2998,4.60045,2470.38,2021-12-06T13:47:54Z
2021-12-06T11:49:29Z,42.805,6.029,13.3000,4.60044,2470.39,2021-12-06T13:50:57Z
2021-12-06T11:52:32Z,42.805,6.029,13.3010,4.60051,2470.38,2021-12-06T13:54:00Z
2021-12-06T11:55:35Z,42.805,6.029,13.2999,4.60045,2470.366,2021-12-06T13:57:03Z
2021-12-06T11:58:39Z,42.805,6.029,13.2997,4.60033,2470.343,2021-12-06T14:00:06Z
2021-12-06T12:01:42Z,42.805,6.029,13.2998,4.60036,2470.343,2021-12-06T14:03:09Z
2021-12-06T12:04:45Z,42.805,6.029,13.3004,4.60042,2470.32,2021-12-06T14:06:13Z
2021-12-06T12:07:48Z,42.805,6.029,13.3008,4.60060,2470.366,2021-12-06T14:09:16Z
2021-12-06T12:10:51Z,42.805,6.029,13.3002,4.60066,2470.343,2021-12-06T14:12:19Z
2021-12-06T12:13:54Z,42.805,6.029,13.3005,4.60044,2470.357,2021-12-06T14:15:22Z
2021-12-06T12:16:57Z,42.805,6.029,13.3011,4.60062,2470.297,2021-12-06T14:18:25Z
2021-12-06T12:20:00Z,42.805,6.029,13.3010,4.60064,2470.366,2021-12-06T14:21:28Z
2021-12-06T12:23:04Z,42.805,6.029,13.2996,4.60046,2470.334,2021-12-06T14:24:31Z
2021-12-06T12:26:07Z,42.805,6.029,13.2998,4.60057,2470.32,2021-12-06T14:27:34Z
2021-12-06T12:29:10Z,42.805,6.029,13.3009,4.60064,2470.343,2021-12-06T14:30:38Z
2021-12-06T12:32:13Z,42.805,6.029,13.3006,4.60061,2470.32,2021-12-06T14:33:41Z
2021-12-06T12:35:16Z,42.805,6.029,13.3004,4.60052,2470.297,2021-12-06T14:36:44Z
2021-12-06T12:38:19Z,42.805,6.029,13.3004,4.60072,2470.32,2021-12-06T14:39:47Z
2021-12-06T12:41:22Z,42.805,6.029,13.3005,4.60054,2470.334,2021-12-06T14:42:50Z
2021-12-06T12:44:25Z,42.805,6.029,13.3006,4.60077,2470.32,2021-12-06T14:45:53Z
2021-12-06T12:47:29Z,42.805,6.029,13.3006,4.60050,2470.32,2021-12-06T14:48:56Z
2021-12-06T12:50:32Z,42.805,6.029,13.2998,4.60051,2470.297,2021-12-06T14:51:59Z
2021-12-06T12:53:35Z,42.805,6.029,13.3011,4.60049,2470.32,2021-12-06T14:55:03Z
2021-12-06T12:56:38Z,42.805,6.029,13.3009,4.60069,2470.32,2021-12-06T14:58:06Z
2021-12-06T12:59:41Z,42.805,6.029,13.2997,4.60044,2470.297,2021-12-06T15:01:09Z
2021-12-06T13:02:44Z,42.805,6.029,13.3006,4.60053,2470.32,2021-12-06T15:04:12Z
2021-12-06T13:05:47Z,42.805,6.029,13.3000,4.60063,2470.297,2021-12-06T15:07:15Z
2021-12-06T13:08:50Z,42.805,6.029,13.2998,4.60041,2470.273,2021-12-06T15:10:18Z
2021-12-06T13:11:53Z,42.805,6.029,13.3005,4.60052,2470.334,2021-12-06T15:13:21Z
2021-12-06T13:14:57Z,42.805,6.029,13.3001,4.60054,2470.31,2021-12-06T15:16:24Z
2021-12-06T13:18:00Z,42.805,6.029,13.3001,4.60047,2470.32,2021-12-06T15:19:27Z
2021-12-06T13:21:03Z,42.805,6.029,13.3003,4.60049,2470.273,2021-12-06T15:22:31Z
2021-12-06T13:24:06Z,42.805,6.029,13.3004,4.60044,2470.287,2021-12-06T15:25:34Z
2021-12-06T13:27:09Z,42.805,6.029,13.2997,4.60053,2470.297,2021-12-06T15:28:37Z
2021-12-06T13:30:12Z,42.805,6.029,13.3015,4.60060,2470.273,2021-12-06T15:31:40Z
2021-12-06T13:33:15Z,42.805,6.029,13.3010,4.60054,2470.31,2021-12-06T15:34:43Z
2021-12-06T13:36:19Z,42.805,6.029,13.3009,4.60060,2470.31,2021-12-06T15:37:46Z
2021-12-06T13:39:22Z,42.805,6.029,13.3006,4.60081,2470.273,2021-12-06T15:40:49Z
2021-12-06T13:42:25Z,42.805,6.029,13.3010,4.60064,2470.273,2021-12-06T15:43:53Z
2021-12-06T13:45:28Z,42.805,6.029,13.3008,4.60063,2470.31,2021-12-06T15:46:56Z
2021-12-06T13:48:31Z,42.805,6.029,13.3006,4.60045,2470.287,2021-12-06T15:49:59Z
2021-12-06T13:51:34Z,42.805,6.029,13.3012,4.60070,2470.227,2021-12-06T15:53:02Z
2021-12-06T13:54:37Z,42.805,6.029,13.3001,4.60034,2470.25,2021-12-06T15:56:05Z
2021-12-06T13:57:40Z,42.805,6.029,13.3007,4.60052,2470.25,2021-12-06T15:59:08Z
2021-12-06T14:00:43Z,42.805,6.029,13.3001,4.60074,2470.264,2021-12-06T16:02:11Z
2021-12-06T14:03:47Z,42.805,6.029,13.3006,4.60058,2470.273,2021-12-06T16:05:14Z
2021-12-06T14:06:50Z,42.805,6.029,13.3003,4.60054,2470.25,2021-12-06T16:08:17Z
2021-12-06T14:09:53Z,42.805,6.029,13.3005,4.60058,2470.227,2021-12-06T16:11:21Z
2021-12-06T14:12:56Z,42.805,6.029,13.3007,4.60049,2470.227,2021-12-06T16:14:24Z
2021-12-06T14:15:59Z,42.805,6.029,13.3006,4.60058,2470.273,2021-12-06T16:17:27Z
2021-12-06T14:19:02Z,42.805,6.029,13.3005,4.60073,2470.24,2021-12-06T16:20:30Z
2021-12-06T14:22:05Z,42.805,6.029,13.3010,4.60045,2470.264,2021-12-06T16:23:33Z
2021-12-06T14:25:08Z,42.805,6.029,13.2997,4.60062,2470.25,2021-12-06T16:26:36Z
2021-12-06T14:28:12Z,42.805,6.029,13.3000,4.60053,2470.227,2021-12-06T16:29:39Z
2021-12-06T14:31:15Z,42.805,6.029,13.3006,4.60058,2470.25,2021-12-06T16:32:42Z
2021-12-06T14:34:18Z,42.805,6.029,13.3006,4.60041,2470.25,2021-12-06T16:35:46Z
2021-12-06T14:37:21Z,42.805,6.029,13.3001,4.60044,2470.25,2021-12-06T16:38:49Z
2021-12-06T14:40:24Z,42.805,6.029,13.3009,4.60061,2470.203,2021-12-06T16:41:52Z
2021-12-06T14:43:27Z,42.805,6.029,13.3006,4.60053,2470.264,2021-12-06T16:44:55Z
2021-12-06T14:46:30Z,42.805,6.029,13.2996,4.60046,2470.236,2021-12-06T16:47:58Z
2021-12-06T14:49:33Z,42.805,6.029,13.2998,4.60046,2470.264,2021-12-06T16:51:01Z
2021-12-06T14:52:37Z,42.805,6.029,13.3006,4.60056,2470.227,2021-12-06T16:54:04Z
2021-12-06T14:55:40Z,42.805,6.029,13.3004,4.60042,2470.227,2021-12-06T16:57:07Z
2021-12-06T14:58:43Z,42.805,6.029,13.2998,4.60031,2470.24,2021-12-06T17:00:11Z
2021-12-06T15:01:46Z,42.805,6.029,13.3002,4.60044,2470.227,2021-12-06T17:03:14Z